Volver al catálogo

DELTA 1 DEB

ActivoSSO
NORAD 40758·DEBRIS·🇺🇸 United States

Lanzado Jul 29, 1976 desde Vandenberg Space Force Base

Loading…

Próximos Pases (próximas 24 horas)

TLE

ActualizadoSource: Space-Track

Época: Sep 14, 2026, 03:18 UTC

1 40758U 76077GB  26257.13789649 -.00000023  00000-0  20334-3 0  9991
2 40758 102.5374 228.2078 0089099 308.8523 112.3605 12.25504159573008

Sigue DELTA 1 DEB en tiempo real con AllMySat

Download on the App Store